#timestamp,LO_Frequency,Hit,StdDev 
1544558415.6,286046998.6,Y
1544558435.4,286047001.1,P
1544558455.3,286046998.9,N
1544558475.1,286046998.5,N
1544558495.9,286046998.4,N
1544558515.7,286046998.9,N
1544558535.5,286046999.4,N
1544558555.4,286046998.5,N
1544558575.2,286046999.3,N
1544558595.0,286047001.1,N
1544558596.0,286047001.1,N
1544558615.8,286047000.8,N
1544558635.6,286047000.3,N
1544558655.5,286047002.4,N
1544558675.3,286047002.3,N
1544558695.1,286047002.7,N
1544558715.9,286047002.4,N
1544558735.7,286047002.1,N
1544558755.6,286047000.3,N
1544558775.4,286047001.2,N
1544558795.2,286047000.5,N
1544558815.1,286047000.9,N
1544558816.0,286047000.9,N
1544558835.8,286046998.3,N
1544558855.6,286047000.9,N
1544558875.5,286046998.1,N
1544558895.3,286046998.2,N
1544558915.2,286047001.0,N
1544558935.9,286047000.8,N
1544558955.7,286047000.8,N
1544558975.6,286047002.7,N
1544558995.4,286047002.3,N
1544559015.2,286047000.2,N
1544559035.1,286047002.8,N
1544559036.0,286047002.8,N
1544559055.8,286047002.2,N
1544559075.7,286047001.3,N
1544559095.5,286047003.5,N
1544559115.3,286047001.6,N
1544559135.2,286047001.3,N
1544559155.0,286047001.5,N
1544559155.9,286047001.5,N
1544559175.8,286047000.4,N
1544559195.6,286047000.1,N
1544559215.4,286047002.3,N
1544559235.3,286047004.2,Y
1544559255.1,286047001.5,P
1544559275.8,286047002.8,P
1544559295.7,286047002.0,N
1544559315.5,286047002.2,Y
1544559335.4,286047001.0,P
1544559355.2,286046998.8,N
1544559375.0,286046998.3,N
1544559375.9,286046998.3,N
1544559395.8,286046998.2,N
1544559415.6,286046998.5,N
1544559435.4,286046998.8,N
1544559455.3,286046999.2,N
1544559475.1,286046997.1,N
1544559495.9,286046996.8,N
1544559515.7,286046999.6,N
1544559535.5,286047000.0,N
1544559555.4,286047000.6,N
1544559575.2,286046999.9,N
1544559595.0,286047000.3,N
1544559595.9,286047000.3,N
1544559615.8,286047001.6,N
1544559635.6,286046999.7,N
1544559655.5,286047002.6,N
1544559675.3,286047000.4,N
1544559695.1,286047001.0,N
1544559715.9,286046998.3,N
1544559735.7,286046998.4,N
1544559755.6,286046998.4,N
1544559775.4,286046998.3,N
1544559795.2,286046998.9,N
1544559815.1,286046998.6,N
1544559816.0,286046998.6,N
1544559835.8,286046999.0,N
1544559855.6,286046998.9,N
1544559875.5,286046999.3,N
1544559895.3,286047000.8,N
1544559915.2,286046998.8,N
1544559935.0,286046998.6,N
1544559935.9,286046998.6,N
1544559955.7,286046998.3,N
1544559975.6,286046998.5,N
1544559995.4,286047002.8,N
1544560015.3,286047000.3,N
1544560035.1,286047000.0,N
1544560055.8,286047002.7,N
1544560075.7,286047000.7,N
1544560095.5,286047000.4,N
1544560115.4,286046998.6,N
1544560135.2,286046998.7,N
1544560155.0,286046998.8,N
1544560155.9,286046998.8,N
1544560175.8,286046999.4,N
1544560195.6,286046996.5,N
1544560215.4,286046999.6,N
1544560235.3,286046998.7,N
1544560255.1,286046999.0,N
1544560275.9,286046998.2,N
1544560295.7,286046998.3,N
1544560315.5,286047000.6,N
1544560335.4,286046998.1,N
1544560355.2,286046999.1,N
1544560375.0,286047001.1,N
1544560375.9,286047001.1,N
1544560395.8,286047001.0,N
1544560415.6,286046999.7,N
1544560435.5,286047001.0,N
1544560455.3,286047000.7,N
1544560475.1,286046998.1,N
1544560495.9,286047001.1,N
1544560515.7,286047000.7,N
1544560535.5,286046998.3,N
1544560555.4,286047001.0,N
1544560575.2,286046998.9,N
1544560595.1,286046999.6,N
1544560596.0,286046999.6,N
1544560615.8,286046997.4,N
1544560635.6,286046996.8,N
1544560655.5,286046998.7,N
1544560675.3,286046998.9,N
1544560695.2,286046999.1,N
1544560715.9,286046999.0,N
1544560735.7,286046998.8,N
1544560755.6,286046998.7,N
1544560775.4,286046996.5,N
1544560795.2,286046999.4,N
1544560815.1,286046996.7,N
1544560816.0,286046996.7,N
1544560835.8,286046997.0,N
1544560855.7,286046999.6,N
1544560875.5,286046997.1,N
1544560895.3,286046996.6,N
1544560915.2,286046999.4,N
1544560935.0,286046999.5,N
1544560935.9,286046999.5,N
1544560955.7,286046999.5,N
1544560975.6,286046996.7,N
1544560995.4,286046997.4,N
1544561015.3,286046998.0,N
1544561035.1,286046997.7,N
1544561036.0,286046997.7,N
1544561055.8,286046999.2,N
1544561075.7,286046998.7,N
1544561095.5,286046998.3,N
1544561115.3,286046998.4,N
1544561135.2,286046999.3,N
1544561155.0,286046996.5,Y
1544561155.9,286046996.5,P
1544561175.8,286046996.5,P
1544561195.6,286046996.6,P
1544561215.4,286046997.0,Y
1544561235.3,286047000.7,P
1544561255.1,286046998.3,N
1544561275.9,286046998.4,N
1544561295.7,286046998.9,N
1544561315.5,286046998.4,N
1544561335.4,286046999.2,N
1544561355.2,286046996.8,Y
1544561375.0,286046998.2,P
1544561375.9,286046998.2,P
1544561395.8,286046999.9,N
1544561415.6,286047000.6,N
1544561435.5,286046999.7,N
1544561455.3,286047002.7,N
1544561475.1,286047003.8,N
1544561495.9,286047001.3,N
1544561515.7,286047000.2,N
1544561535.5,286047000.7,N
1544561555.4,286046999.7,N
1544561575.2,286047001.5,N
1544561595.1,286047002.2,N
1544561596.0,286047002.2,N
1544561615.8,286047000.0,N
1544561635.6,286047000.1,N
1544561655.5,286047000.6,N
1544561675.3,286046998.1,N
1544561695.1,286047000.5,N
1544561715.9,286046999.7,N
1544561735.7,286047001.8,N
1544561755.6,286047001.4,N
1544561775.4,286047004.1,N
1544561795.2,286047002.1,N
1544561815.1,286046999.7,N
1544561816.0,286046999.7,N
1544561835.8,286047002.3,N
1544561855.6,286047002.4,N
1544561875.5,286047000.6,N
1544561895.3,286047001.1,N
1544561915.9,286046999.7,N
1544561935.8,286047002.5,N
1544561955.7,286047002.4,N
1544561975.5,286046999.7,N
1544561995.3,286047001.2,N
